Location: ?tuk?ru
(16.6754°N, 80.5957°E)
Time: 16:40:28
(UTC+00:00)

IUS-14 SRM-1 - Pass Details

Date: 14 April 2024
Orbit: 416 x 34214 km, 26.6° (Epoch: 27 May)

Event Time Altitude Azimuth Distance (km) Brightness Sun altitude
Rises 23:54:46 0° 291° (WNW) 7,500 8.0 -7.4°
Reaches altitude 10° 00:02:07 10° 293° (WNW) 4,133 6.8 -5.7°
Maximum altitude 00:09:40 69° 17° (NNE) 672 3.4 -3.9°
Drops below altitude 10° 00:12:26 10° 102° (ESE) 1,558 6.5 -3.3°
Sets 00:13:55 0° 105° (ESE) 2,335 7.4 -2.9°
